Wetterdaten: Freitag, 02.10.2015
Datum Zeit Temp. A. Feuchte A. Luftdruck Regen Wind Richtung Richtung Sonnenschein ET UV Solar Taupunkt Windchill Windben Empfang
02.10.2015 00:03 7,4 C 76 % 1026,2 hPa 0,0 l/m 2,9 km/h (1 Bft) O-NO 73 0 min 0,000 mm 0,0 UV-I 0 W/m 3,5 C 7,4 C 7,9 km/h (2 Bft) 0,00 %
02.10.2015 00:08 7,3 C 76 % 1026,3 hPa 0,0 l/m 5,4 km/h (1 Bft) O-SO 105 0 min 0,000 mm 0,0 UV-I 0 W/m 3,4 C 7,3 C 7,9 km/h (2 Bft) 0,00 %
02.10.2015 00:13 7,3 C 77 % 1026,1 hPa 0,0 l/m 0,0 km/h (0 Bft) O-NO 64 0 min 0,000 mm 0,0 UV-I 0 W/m 3,5 C 7,3 C 0,0 km/h (0 Bft) 0,00 %
02.10.2015 00:18 7,3 C 77 % 1026,2 hPa 0,0 l/m 0,7 km/h (0 Bft) O 80 0 min 0,000 mm 0,0 UV-I 0 W/m 3,5 C 7,3 C 4,0 km/h (1 Bft) 0,00 %
02.10.2015 00:23 7,3 C 77 % 1026,2 hPa 0,0 l/m 5,8 km/h (2 Bft) O-SO 103 0 min 0,000 mm 0,0 UV-I 0 W/m 3,5 C 7,3 C 7,9 km/h (2 Bft) 0,00 %
02.10.2015 00:28 7,3 C 76 % 1026,1 hPa 0,0 l/m 0,7 km/h (0 Bft) O-NO 77 0 min 0,000 mm 0,0 UV-I 0 W/m 3,4 C 7,3 C 4,0 km/h (1 Bft) 0,00 %
02.10.2015 00:33 7,3 C 76 % 1026,0 hPa 0,0 l/m 0,0 km/h (0 Bft) O-NO 67 0 min 0,000 mm 0,0 UV-I 0 W/m 3,4 C 7,3 C 0,0 km/h (0 Bft) 0,00 %
02.10.2015 00:38 7,3 C 77 % 1026,0 hPa 0,0 l/m 1,4 km/h (1 Bft) O-SO 120 0 min 0,000 mm 0,0 UV-I 0 W/m 3,5 C 7,3 C 4,0 km/h (1 Bft) 0,00 %
02.10.2015 00:43 7,1 C 77 % 1026,2 hPa 0,0 l/m 0,0 km/h (0 Bft) NO 46 0 min 0,000 mm 0,0 UV-I 0 W/m 3,3 C 7,1 C 0,0 km/h (0 Bft) 0,00 %
02.10.2015 00:48 7,1 C 77 % 1026,0 hPa 0,0 l/m 0,0 km/h (0 Bft) NO 38 0 min 0,000 mm 0,0 UV-I 0 W/m 3,3 C 7,1 C 0,0 km/h (0 Bft) 0,00 %
02.10.2015 00:53 7,1 C 77 % 1026,0 hPa 0,0 l/m 1,4 km/h (1 Bft) N-NO 32 0 min 0,000 mm 0,0 UV-I 0 W/m 3,3 C 7,1 C 4,0 km/h (1 Bft) 0,00 %
02.10.2015 00:58 7,1 C 77 % 1025,9 hPa 0,0 l/m 0,0 km/h (0 Bft) O 80 0 min 0,000 mm 0,0 UV-I 0 W/m 3,3 C 7,1 C 0,0 km/h (0 Bft) 0,00 %
02.10.2015 01:03 7,1 C 77 % 1025,9 hPa 0,0 l/m 5,8 km/h (2 Bft) O 81 0 min 0,000 mm 0,0 UV-I 0 W/m 3,3 C 7,1 C 7,9 km/h (2 Bft) 0,00 %
02.10.2015 01:08 7,2 C 77 % 1025,7 hPa 0,0 l/m 0,0 km/h (0 Bft) O-NO 68 0 min 0,000 mm 0,0 UV-I 0 W/m 3,4 C 7,2 C 0,0 km/h (0 Bft) 0,00 %
02.10.2015 01:13 7,2 C 77 % 1025,9 hPa 0,0 l/m 0,0 km/h (0 Bft) O 79 0 min 0,000 mm 0,0 UV-I 0 W/m 3,4 C 7,2 C 0,0 km/h (0 Bft) 0,00 %
02.10.2015 01:18 7,1 C 77 % 1025,9 hPa 0,0 l/m 7,9 km/h (2 Bft) O-SO 116 0 min 0,000 mm 0,0 UV-I 0 W/m 3,3 C 5,9 C 7,9 km/h (2 Bft) 0,00 %
02.10.2015 01:23 7,1 C 77 % 1025,9 hPa 0,0 l/m 4,0 km/h (1 Bft) O 88 0 min 0,000 mm 0,0 UV-I 0 W/m 3,3 C 7,1 C 7,9 km/h (2 Bft) 0,00 %
02.10.2015 01:28 7,0 C 78 % 1026,0 hPa 0,0 l/m 0,0 km/h (0 Bft) O 82 0 min 0,000 mm 0,0 UV-I 0 W/m 3,4 C 7,0 C 0,0 km/h (0 Bft) 0,00 %
02.10.2015 01:33 6,9 C 78 % 1025,8 hPa 0,0 l/m 0,0 km/h (0 Bft) O-NO 58 0 min 0,000 mm 0,0 UV-I 0 W/m 3,3 C 6,9 C 0,0 km/h (0 Bft) 0,00 %
02.10.2015 01:38 6,8 C 79 % 1025,6 hPa 0,0 l/m 1,8 km/h (1 Bft) O-NO 75 0 min 0,000 mm 0,0 UV-I 0 W/m 3,4 C 6,8 C 4,0 km/h (1 Bft) 0,00 %
02.10.2015 01:43 6,7 C 79 % 1025,6 hPa 0,0 l/m 5,4 km/h (1 Bft) O-SO 114 0 min 0,000 mm 0,0 UV-I 0 W/m 3,3 C 6,7 C 7,9 km/h (2 Bft) 0,00 %
02.10.2015 01:48 6,7 C 79 % 1025,7 hPa 0,0 l/m 6,8 km/h (2 Bft) O 86 0 min 0,000 mm 0,0 UV-I 0 W/m 3,3 C 6,4 C 7,9 km/h (2 Bft) 0,00 %
02.10.2015 01:53 6,8 C 79 % 1025,5 hPa 0,0 l/m 1,8 km/h (1 Bft) NO 49 0 min 0,000 mm 0,0 UV-I 0 W/m 3,4 C 6,8 C 4,0 km/h (1 Bft) 0,00 %
02.10.2015 01:58 6,8 C 79 % 1025,7 hPa 0,0 l/m 3,2 km/h (1 Bft) O 87 0 min 0,000 mm 0,0 UV-I 0 W/m 3,4 C 6,8 C 4,0 km/h (1 Bft) 0,00 %
02.10.2015 02:03 6,7 C 79 % 1025,6 hPa 0,0 l/m 3,2 km/h (1 Bft) O 95 0 min 0,000 mm 0,0 UV-I 0 W/m 3,3 C 6,7 C 7,9 km/h (2 Bft) 0,00 %
02.10.2015 02:08 6,6 C 79 % 1025,6 hPa 0,0 l/m 1,4 km/h (1 Bft) O 81 0 min 0,000 mm 0,0 UV-I 0 W/m 3,2 C 6,6 C 4,0 km/h (1 Bft) 0,00 %
02.10.2015 02:13 6,6 C 79 % 1025,5 hPa 0,0 l/m 1,4 km/h (1 Bft) O-SO 123 0 min 0,000 mm 0,0 UV-I 0 W/m 3,2 C 6,6 C 4,0 km/h (1 Bft) 0,00 %
02.10.2015 02:18 6,6 C 79 % 1025,4 hPa 0,0 l/m 0,7 km/h (0 Bft) O-NO 74 0 min 0,000 mm 0,0 UV-I 0 W/m 3,2 C 6,6 C 4,0 km/h (1 Bft) 0,00 %
02.10.2015 02:23 6,7 C 79 % 1025,4 hPa 0,0 l/m 6,8 km/h (2 Bft) O 80 0 min 0,000 mm 0,0 UV-I 0 W/m 3,3 C 6,4 C 11,9 km/h (2 Bft) 0,00 %
02.10.2015 02:28 6,8 C 78 % 1025,5 hPa 0,0 l/m 1,4 km/h (1 Bft) O-SO 114 0 min 0,000 mm 0,0 UV-I 0 W/m 3,2 C 6,8 C 4,0 km/h (1 Bft) 0,00 %
02.10.2015 02:33 6,8 C 78 % 1025,3 hPa 0,0 l/m 4,7 km/h (1 Bft) SO 132 0 min 0,000 mm 0,0 UV-I 0 W/m 3,2 C 6,8 C 7,9 km/h (2 Bft) 0,00 %
02.10.2015 02:38 6,9 C 78 % 1025,3 hPa 0,0 l/m 5,4 km/h (1 Bft) SO 125 0 min 0,000 mm 0,0 UV-I 0 W/m 3,3 C 6,9 C 7,9 km/h (2 Bft) 0,00 %
02.10.2015 02:43 6,8 C 79 % 1025,1 hPa 0,0 l/m 0,0 km/h (0 Bft) O-SO 113 0 min 0,000 mm 0,0 UV-I 0 W/m 3,4 C 6,8 C 0,0 km/h (0 Bft) 0,00 %
02.10.2015 02:48 6,7 C 79 % 1025,2 hPa 0,0 l/m 0,4 km/h (0 Bft) O-NO 71 0 min 0,000 mm 0,0 UV-I 0 W/m 3,3 C 6,7 C 4,0 km/h (1 Bft) 0,00 %
02.10.2015 02:53 6,5 C 79 % 1025,3 hPa 0,0 l/m 0,0 km/h (0 Bft) O-NO 63 0 min 0,000 mm 0,0 UV-I 0 W/m 3,1 C 6,5 C 0,0 km/h (0 Bft) 0,00 %
02.10.2015 02:58 6,4 C 80 % 1025,3 hPa 0,0 l/m 0,0 km/h (0 Bft) O 83 0 min 0,000 mm 0,0 UV-I 0 W/m 3,2 C 6,4 C 0,0 km/h (0 Bft) 0,00 %
02.10.2015 03:03 6,2 C 81 % 1025,3 hPa 0,0 l/m 0,0 km/h (0 Bft) O-NO 66 0 min 0,000 mm 0,0 UV-I 0 W/m 3,2 C 6,2 C 0,0 km/h (0 Bft) 0,00 %
02.10.2015 03:08 5,9 C 82 % 1025,3 hPa 0,0 l/m 1,4 km/h (1 Bft) O 88 0 min 0,000 mm 0,0 UV-I 0 W/m 3,1 C 5,9 C 4,0 km/h (1 Bft) 0,00 %
02.10.2015 03:13 5,8 C 82 % 1025,1 hPa 0,0 l/m 0,4 km/h (0 Bft) N-NW 344 0 min 0,000 mm 0,0 UV-I 0 W/m 3,0 C 5,8 C 4,0 km/h (1 Bft) 0,00 %
02.10.2015 03:18 5,8 C 81 % 1025,2 hPa 0,0 l/m 0,0 km/h (0 Bft) O-NO 60 0 min 0,000 mm 0,0 UV-I 0 W/m 2,8 C 5,8 C 0,0 km/h (0 Bft) 0,00 %
02.10.2015 03:23 5,9 C 80 % 1025,1 hPa 0,0 l/m 0,0 km/h (0 Bft) O-NO 70 0 min 0,000 mm 0,0 UV-I 0 W/m 2,7 C 5,9 C 0,0 km/h (0 Bft) 0,00 %
02.10.2015 03:28 5,9 C 81 % 1025,1 hPa 0,0 l/m 0,0 km/h (0 Bft) O 92 0 min 0,000 mm 0,0 UV-I 0 W/m 2,9 C 5,9 C 0,0 km/h (0 Bft) 0,00 %
02.10.2015 03:33 5,9 C 82 % 1025,1 hPa 0,0 l/m 0,0 km/h (0 Bft) O-NO 66 0 min 0,000 mm 0,0 UV-I 0 W/m 3,1 C 5,9 C 0,0 km/h (0 Bft) 0,00 %
02.10.2015 03:38 5,7 C 82 % 1025,2 hPa 0,0 l/m 0,4 km/h (0 Bft) O-NO 67 0 min 0,000 mm 0,0 UV-I 0 W/m 2,9 C 5,7 C 4,0 km/h (1 Bft) 0,00 %
02.10.2015 03:43 5,6 C 82 % 1025,0 hPa 0,0 l/m 0,0 km/h (0 Bft) O-SO 104 0 min 0,000 mm 0,0 UV-I 0 W/m 2,8 C 5,6 C 0,0 km/h (0 Bft) 0,00 %
02.10.2015 03:48 5,5 C 83 % 1025,1 hPa 0,0 l/m 0,0 km/h (0 Bft) O 87 0 min 0,000 mm 0,0 UV-I 0 W/m 2,8 C 5,5 C 0,0 km/h (0 Bft) 0,00 %
02.10.2015 03:53 5,3 C 83 % 1025,1 hPa 0,0 l/m 0,0 km/h (0 Bft) O-NO 69 0 min 0,000 mm 0,0 UV-I 0 W/m 2,7 C 5,3 C 0,0 km/h (0 Bft) 0,00 %
02.10.2015 03:58 5,2 C 83 % 1025,0 hPa 0,0 l/m 0,0 km/h (0 Bft) O 87 0 min 0,000 mm 0,0 UV-I 0 W/m 2,6 C 5,2 C 0,0 km/h (0 Bft) 0,00 %
02.10.2015 04:03 5,2 C 84 % 1024,8 hPa 0,0 l/m 0,0 km/h (0 Bft) O 80 0 min 0,000 mm 0,0 UV-I 0 W/m 2,7 C 5,2 C 0,0 km/h (0 Bft) 0,00 %
02.10.2015 04:08 5,1 C 84 % 1024,8 hPa 0,0 l/m 0,0 km/h (0 Bft) O 101 0 min 0,000 mm 0,0 UV-I 0 W/m 2,6 C 5,1 C 0,0 km/h (0 Bft) 0,00 %
02.10.2015 04:13 5,1 C 84 % 1025,0 hPa 0,0 l/m 0,0 km/h (0 Bft) O 100 0 min 0,000 mm 0,0 UV-I 0 W/m 2,6 C 5,1 C 0,0 km/h (0 Bft) 0,00 %
02.10.2015 04:18 5,0 C 84 % 1025,1 hPa 0,0 l/m 0,4 km/h (0 Bft) O-NO 77 0 min 0,000 mm 0,0 UV-I 0 W/m 2,5 C 5,0 C 4,0 km/h (1 Bft) 0,00 %
02.10.2015 04:23 5,0 C 84 % 1025,0 hPa 0,0 l/m 0,0 km/h (0 Bft) O-NO 74 0 min 0,000 mm 0,0 UV-I 0 W/m 2,5 C 5,0 C 0,0 km/h (0 Bft) 0,00 %
02.10.2015 04:28 5,0 C 84 % 1025,0 hPa 0,0 l/m 0,0 km/h (0 Bft) O-NO 78 0 min 0,000 mm 0,0 UV-I 0 W/m 2,5 C 5,0 C 0,0 km/h (0 Bft) 0,00 %
02.10.2015 04:33 5,1 C 84 % 1024,9 hPa 0,0 l/m 0,0 km/h (0 Bft) O-NO 76 0 min 0,000 mm 0,0 UV-I 0 W/m 2,6 C 5,1 C 0,0 km/h (0 Bft) 0,00 %
02.10.2015 04:38 5,1 C 84 % 1025,2 hPa 0,0 l/m 0,0 km/h (0 Bft) NO 48 0 min 0,000 mm 0,0 UV-I 0 W/m 2,6 C 5,1 C 0,0 km/h (0 Bft) 0,00 %
02.10.2015 04:43 5,0 C 84 % 1025,0 hPa 0,0 l/m 0,4 km/h (0 Bft) O-SO 122 0 min 0,000 mm 0,0 UV-I 0 W/m 2,5 C 5,0 C 4,0 km/h (1 Bft) 0,00 %
02.10.2015 04:48 5,0 C 84 % 1025,0 hPa 0,0 l/m 0,0 km/h (0 Bft) O-NO 63 0 min 0,000 mm 0,0 UV-I 0 W/m 2,5 C 5,0 C 0,0 km/h (0 Bft) 0,00 %
02.10.2015 04:53 5,0 C 84 % 1024,9 hPa 0,0 l/m 0,7 km/h (0 Bft) O-NO 57 0 min 0,000 mm 0,0 UV-I 0 W/m 2,5 C 5,0 C 4,0 km/h (1 Bft) 0,00 %
02.10.2015 04:58 5,1 C 83 % 1025,0 hPa 0,0 l/m 0,0 km/h (0 Bft) O-NO 74 0 min 0,000 mm 0,0 UV-I 0 W/m 2,5 C 5,1 C 0,0 km/h (0 Bft) 0,00 %
02.10.2015 05:03 5,1 C 83 % 1024,7 hPa 0,0 l/m 0,0 km/h (0 Bft) O-NO 65 0 min 0,000 mm 0,0 UV-I 0 W/m 2,5 C 5,1 C 0,0 km/h (0 Bft) 0,00 %
02.10.2015 05:08 5,1 C 83 % 1024,7 hPa 0,0 l/m 1,8 km/h (1 Bft) O 97 0 min 0,000 mm 0,0 UV-I 0 W/m 2,5 C 5,1 C 4,0 km/h (1 Bft) 0,00 %
02.10.2015 05:13 5,0 C 85 % 1024,6 hPa 0,0 l/m 0,0 km/h (0 Bft) O 84 0 min 0,000 mm 0,0 UV-I 0 W/m 2,7 C 5,0 C 0,0 km/h (0 Bft) 0,00 %
02.10.2015 05:18 4,9 C 85 % 1024,7 hPa 0,0 l/m 0,0 km/h (0 Bft) O-NO 75 0 min 0,000 mm 0,0 UV-I 0 W/m 2,6 C 4,9 C 0,0 km/h (0 Bft) 0,00 %
02.10.2015 05:23 4,8 C 85 % 1024,7 hPa 0,0 l/m 0,0 km/h (0 Bft) NO 56 0 min 0,000 mm 0,0 UV-I 0 W/m 2,5 C 4,8 C 0,0 km/h (0 Bft) 0,00 %
02.10.2015 05:28 4,8 C 86 % 1024,7 hPa 0,0 l/m 0,0 km/h (0 Bft) O-NO 65 0 min 0,000 mm 0,0 UV-I 0 W/m 2,7 C 4,8 C 0,0 km/h (0 Bft) 0,00 %
02.10.2015 05:33 4,7 C 86 % 1024,7 hPa 0,0 l/m 0,0 km/h (0 Bft) O-NO 70 0 min 0,000 mm 0,0 UV-I 0 W/m 2,6 C 4,7 C 0,0 km/h (0 Bft) 0,00 %
02.10.2015 05:38 4,7 C 86 % 1024,6 hPa 0,0 l/m 0,0 km/h (0 Bft) O-NO 66 0 min 0,000 mm 0,0 UV-I 0 W/m 2,6 C 4,7 C 0,0 km/h (0 Bft) 0,00 %
02.10.2015 05:43 4,7 C 86 % 1024,7 hPa 0,0 l/m 0,0 km/h (0 Bft) NO 39 0 min 0,000 mm 0,0 UV-I 0 W/m 2,6 C 4,7 C 0,0 km/h (0 Bft) 0,00 %
02.10.2015 05:48 4,8 C 86 % 1024,7 hPa 0,0 l/m 0,0 km/h (0 Bft) O-NO 60 0 min 0,000 mm 0,0 UV-I 0 W/m 2,7 C 4,8 C 0,0 km/h (0 Bft) 0,00 %
02.10.2015 05:53 4,8 C 86 % 1024,8 hPa 0,0 l/m 0,0 km/h (0 Bft) NO 51 0 min 0,000 mm 0,0 UV-I 0 W/m 2,7 C 4,8 C 0,0 km/h (0 Bft) 0,00 %
02.10.2015 05:58 4,8 C 86 % 1024,9 hPa 0,0 l/m 0,4 km/h (0 Bft) O-NO 75 0 min 0,000 mm 0,0 UV-I 0 W/m 2,7 C 4,8 C 4,0 km/h (1 Bft) 0,00 %
02.10.2015 06:03 4,8 C 85 % 1024,9 hPa 0,0 l/m 0,0 km/h (0 Bft) O-NO 77 0 min 0,000 mm 0,0 UV-I 0 W/m 2,5 C 4,8 C 0,0 km/h (0 Bft) 0,00 %
02.10.2015 06:08 4,9 C 85 % 1024,8 hPa 0,0 l/m 0,0 km/h (0 Bft) O-NO 60 0 min 0,000 mm 0,0 UV-I 0 W/m 2,6 C 4,9 C 0,0 km/h (0 Bft) 0,00 %
02.10.2015 06:13 4,7 C 85 % 1024,9 hPa 0,0 l/m 0,0 km/h (0 Bft) O 88 0 min 0,000 mm 0,0 UV-I 0 W/m 2,4 C 4,7 C 0,0 km/h (0 Bft) 0,00 %
02.10.2015 06:18 4,6 C 86 % 1024,7 hPa 0,0 l/m 0,0 km/h (0 Bft) O-NO 66 0 min 0,000 mm 0,0 UV-I 0 W/m 2,5 C 4,6 C 0,0 km/h (0 Bft) 0,00 %
02.10.2015 06:23 4,5 C 86 % 1024,9 hPa 0,0 l/m 0,0 km/h (0 Bft) O-NO 64 0 min 0,000 mm 0,0 UV-I 0 W/m 2,4 C 4,5 C 0,0 km/h (0 Bft) 0,00 %
02.10.2015 06:28 4,6 C 86 % 1024,5 hPa 0,0 l/m 4,0 km/h (1 Bft) O 81 0 min 0,000 mm 0,0 UV-I 0 W/m 2,5 C 4,6 C 7,9 km/h (2 Bft) 0,00 %
02.10.2015 06:33 4,7 C 86 % 1024,7 hPa 0,0 l/m 4,0 km/h (1 Bft) O-SO 107 0 min 0,000 mm 0,0 UV-I 0 W/m 2,6 C 4,7 C 7,9 km/h (2 Bft) 0,00 %
02.10.2015 06:38 4,7 C 86 % 1024,7 hPa 0,0 l/m 0,0 km/h (0 Bft) O-NO 68 0 min 0,000 mm 0,0 UV-I 0 W/m 2,6 C 4,7 C 0,0 km/h (0 Bft) 0,00 %
02.10.2015 06:43 4,6 C 86 % 1024,9 hPa 0,0 l/m 0,0 km/h (0 Bft) O-NO 66 0 min 0,000 mm 0,0 UV-I 0 W/m 2,5 C 4,6 C 0,0 km/h (0 Bft) 0,00 %
02.10.2015 06:48 4,6 C 86 % 1024,4 hPa 0,0 l/m 0,0 km/h (0 Bft) O-SO 107 0 min 0,000 mm 0,0 UV-I 0 W/m 2,5 C 4,6 C 0,0 km/h (0 Bft) 0,00 %
02.10.2015 06:53 4,6 C 87 % 1024,4 hPa 0,0 l/m 0,0 km/h (0 Bft) O 86 0 min 0,000 mm 0,0 UV-I 0 W/m 2,6 C 4,6 C 0,0 km/h (0 Bft) 0,00 %
02.10.2015 06:58 4,5 C 87 % 1024,6 hPa 0,0 l/m 0,0 km/h (0 Bft) O 87 0 min 0,000 mm 0,0 UV-I 0 W/m 2,5 C 4,5 C 0,0 km/h (0 Bft) 0,00 %
02.10.2015 07:03 4,3 C 87 % 1024,5 hPa 0,0 l/m 0,0 km/h (0 Bft) O-NO 61 0 min 0,000 mm 0,0 UV-I 0 W/m 2,3 C 4,3 C 0,0 km/h (0 Bft) 0,00 %
02.10.2015 07:08 4,2 C 88 % 1024,5 hPa 0,0 l/m 0,0 km/h (0 Bft) O-SO 114 0 min 0,000 mm 0,0 UV-I 5 W/m 2,4 C 4,2 C 0,0 km/h (0 Bft) 0,00 %
02.10.2015 07:13 4,1 C 88 % 1024,5 hPa 0,0 l/m 0,4 km/h (0 Bft) O-NO 78 0 min 0,000 mm 0,0 UV-I 9 W/m 2,3 C 4,1 C 4,0 km/h (1 Bft) 0,00 %
02.10.2015 07:18 4,1 C 89 % 1024,4 hPa 0,0 l/m 0,0 km/h (0 Bft) NO 54 5 min 0,000 mm 0,0 UV-I 18 W/m 2,5 C 4,1 C 0,0 km/h (0 Bft) 0,00 %
02.10.2015 07:23 4,2 C 89 % 1024,5 hPa 0,0 l/m 0,0 km/h (0 Bft) O-NO 70 5 min 0,000 mm 0,0 UV-I 62 W/m 2,6 C 4,2 C 0,0 km/h (0 Bft) 0,00 %
02.10.2015 07:28 4,3 C 88 % 1024,4 hPa 0,0 l/m 0,0 km/h (0 Bft) O-NO 59 5 min 0,000 mm 0,0 UV-I 69 W/m 2,5 C 4,3 C 0,0 km/h (0 Bft) 0,00 %
02.10.2015 07:33 4,4 C 88 % 1024,3 hPa 0,0 l/m 0,0 km/h (0 Bft) O 79 5 min 0,000 mm 0,0 UV-I 74 W/m 2,6 C 4,4 C 0,0 km/h (0 Bft) 0,00 %
02.10.2015 07:38 4,5 C 88 % 1024,7 hPa 0,0 l/m 0,0 km/h (0 Bft) O-NO 69 5 min 0,000 mm 0,0 UV-I 92 W/m 2,7 C 4,5 C 0,0 km/h (0 Bft) 0,00 %
02.10.2015 07:43 4,7 C 87 % 1024,4 hPa 0,0 l/m 0,0 km/h (0 Bft) O-NO 61 5 min 0,000 mm 0,0 UV-I 97 W/m 2,7 C 4,7 C 0,0 km/h (0 Bft) 0,00 %
02.10.2015 07:48 5,0 C 86 % 1024,4 hPa 0,0 l/m 0,0 km/h (0 Bft) NO 51 5 min 0,000 mm 0,0 UV-I 102 W/m 2,9 C 5,0 C 0,0 km/h (0 Bft) 0,00 %
02.10.2015 07:53 5,3 C 84 % 1024,3 hPa 0,0 l/m 2,2 km/h (1 Bft) O 97 5 min 0,000 mm 0,0 UV-I 117 W/m 2,8 C 5,3 C 4,0 km/h (1 Bft) 0,00 %
02.10.2015 07:58 5,8 C 81 % 1024,5 hPa 0,0 l/m 4,0 km/h (1 Bft) O-NO 76 5 min 0,000 mm 0,0 UV-I 120 W/m 2,8 C 5,8 C 7,9 km/h (2 Bft) 0,00 %
02.10.2015 08:03 6,2 C 80 % 1024,4 hPa 0,0 l/m 2,9 km/h (1 Bft) O-SO 110 5 min 0,000 mm 0,0 UV-I 130 W/m 3,0 C 6,2 C 4,0 km/h (1 Bft) 0,00 %
02.10.2015 08:08 6,5 C 79 % 1024,5 hPa 0,0 l/m 2,2 km/h (1 Bft) O-NO 72 5 min 0,000 mm 0,0 UV-I 135 W/m 3,1 C 6,5 C 4,0 km/h (1 Bft) 0,00 %
02.10.2015 08:13 6,7 C 79 % 1024,4 hPa 0,0 l/m 4,3 km/h (1 Bft) S 173 5 min 0,000 mm 0,0 UV-I 140 W/m 3,3 C 6,7 C 7,9 km/h (2 Bft) 0,00 %
02.10.2015 08:18 6,9 C 78 % 1024,4 hPa 0,0 l/m 2,2 km/h (1 Bft) O-NO 71 5 min 0,000 mm 1,0 UV-I 145 W/m 3,3 C 6,9 C 7,9 km/h (2 Bft) 0,00 %
02.10.2015 08:23 7,1 C 78 % 1024,2 hPa 0,0 l/m 2,2 km/h (1 Bft) O 99 5 min 0,000 mm 1,0 UV-I 150 W/m 3,5 C 7,1 C 4,0 km/h (1 Bft) 0,00 %
02.10.2015 08:28 7,2 C 77 % 1024,4 hPa 0,0 l/m 5,8 km/h (2 Bft) O-SO 113 5 min 0,000 mm 1,0 UV-I 155 W/m 3,4 C 7,2 C 7,9 km/h (2 Bft) 0,00 %
02.10.2015 08:33 7,5 C 76 % 1024,4 hPa 0,0 l/m 1,4 km/h (1 Bft) O-NO 74 5 min 0,000 mm 1,0 UV-I 155 W/m 3,5 C 7,5 C 4,0 km/h (1 Bft) 0,00 %
02.10.2015 08:38 7,7 C 75 % 1024,4 hPa 0,0 l/m 5,8 km/h (2 Bft) O 91 5 min 0,000 mm 1,0 UV-I 155 W/m 3,6 C 7,7 C 7,9 km/h (2 Bft) 0,00 %
02.10.2015 08:43 7,9 C 76 % 1024,2 hPa 0,0 l/m 3,2 km/h (1 Bft) O 100 5 min 0,000 mm 1,0 UV-I 155 W/m 3,9 C 7,9 C 4,0 km/h (1 Bft) 0,00 %
02.10.2015 08:48 8,0 C 75 % 1024,1 hPa 0,0 l/m 0,7 km/h (0 Bft) O-NO 63 5 min 0,000 mm 1,0 UV-I 157 W/m 3,8 C 8,0 C 4,0 km/h (1 Bft) 0,00 %
02.10.2015 08:53 8,1 C 73 % 1024,2 hPa 0,0 l/m 0,0 km/h (0 Bft) NO 44 0 min 0,000 mm 1,0 UV-I 157 W/m 3,6 C 8,1 C 0,0 km/h (0 Bft) 0,00 %
02.10.2015 08:58 8,1 C 75 % 1024,2 hPa 0,0 l/m 4,3 km/h (1 Bft) O 91 0 min 0,000 mm 1,0 UV-I 157 W/m 3,9 C 8,1 C 7,9 km/h (2 Bft) 0,00 %
02.10.2015 09:03 8,0 C 75 % 1024,2 hPa 0,0 l/m 1,8 km/h (1 Bft) O-NO 60 0 min 0,000 mm 1,0 UV-I 158 W/m 3,8 C 8,0 C 4,0 km/h (1 Bft) 0,00 %
02.10.2015 09:08 8,2 C 74 % 1024,3 hPa 0,0 l/m 7,9 km/h (2 Bft) O 89 0 min 0,000 mm 1,0 UV-I 158 W/m 3,8 C 7,0 C 15,8 km/h (3 Bft) 0,00 %
02.10.2015 09:13 8,5 C 73 % 1024,2 hPa 0,0 l/m 9,7 km/h (2 Bft) O 93 0 min 0,000 mm 1,0 UV-I 160 W/m 3,9 C 6,1 C 11,9 km/h (2 Bft) 0,00 %
02.10.2015 09:18 8,7 C 72 % 1024,3 hPa 0,0 l/m 5,8 km/h (2 Bft) O-SO 116 0 min 0,000 mm 1,0 UV-I 162 W/m 3,9 C 8,7 C 11,9 km/h (2 Bft) 0,00 %
02.10.2015 09:23 8,9 C 70 % 1024,0 hPa 0,0 l/m 7,2 km/h (2 Bft) O-SO 115 0 min 0,000 mm 1,0 UV-I 165 W/m 3,7 C 8,3 C 11,9 km/h (2 Bft) 0,00 %
02.10.2015 09:28 9,0 C 70 % 1024,1 hPa 0,0 l/m 5,4 km/h (1 Bft) O 98 0 min 0,000 mm 1,0 UV-I 105 W/m 3,8 C 9,0 C 7,9 km/h (2 Bft) 0,00 %
02.10.2015 09:33 9,1 C 70 % 1024,0 hPa 0,0 l/m 7,2 km/h (2 Bft) O-NO 77 0 min 0,000 mm 1,0 UV-I 108 W/m 3,9 C 8,5 C 11,9 km/h (2 Bft) 0,00 %
02.10.2015 09:38 9,2 C 69 % 1024,2 hPa 0,0 l/m 7,2 km/h (2 Bft) O 80 0 min 0,000 mm 1,0 UV-I 92 W/m 3,8 C 8,6 C 11,9 km/h (2 Bft) 0,00 %
02.10.2015 09:43 9,3 C 70 % 1024,0 hPa 0,0 l/m 7,2 km/h (2 Bft) O 95 0 min 0,000 mm 1,0 UV-I 118 W/m 4,1 C 8,7 C 7,9 km/h (2 Bft) 0,00 %
02.10.2015 09:48 9,2 C 69 % 1024,1 hPa 0,0 l/m 19,4 km/h (3 Bft) O 89 0 min 0,000 mm 1,0 UV-I 89 W/m 3,8 C 2,5 C 28,1 km/h (4 Bft) 0,00 %
02.10.2015 09:53 9,1 C 71 % 1024,1 hPa 0,0 l/m 7,9 km/h (2 Bft) NO 52 0 min 0,000 mm 1,0 UV-I 96 W/m 4,1 C 8,0 C 11,9 km/h (2 Bft) 0,00 %
02.10.2015 09:58 8,9 C 70 % 1024,1 hPa 0,0 l/m 9,4 km/h (2 Bft) SO 124 0 min 0,000 mm 1,0 UV-I 109 W/m 3,7 C 6,8 C 11,9 km/h (2 Bft) 0,00 %
02.10.2015 10:03 8,9 C 71 % 1024,0 hPa 0,0 l/m 10,4 km/h (2 Bft) O-SO 118 0 min 0,000 mm 1,0 UV-I 142 W/m 3,9 C 6,1 C 15,8 km/h (3 Bft) 0,00 %
02.10.2015 10:08 8,9 C 71 % 1024,0 hPa 0,0 l/m 4,7 km/h (1 Bft) SO 127 0 min 0,000 mm 1,0 UV-I 159 W/m 3,9 C 8,9 C 7,9 km/h (2 Bft) 0,00 %
02.10.2015 10:13 9,0 C 70 % 1023,8 hPa 0,0 l/m 4,0 km/h (1 Bft) O-NO 72 0 min 0,000 mm 1,0 UV-I 212 W/m 3,8 C 9,0 C 7,9 km/h (2 Bft) 0,00 %
02.10.2015 10:18 9,5 C 66 % 1023,7 hPa 0,0 l/m 0,7 km/h (0 Bft) O-NO 77 0 min 0,000 mm 1,0 UV-I 238 W/m 3,5 C 9,5 C 4,0 km/h (1 Bft) 0,00 %
02.10.2015 10:23 10,1 C 65 % 1023,4 hPa 0,0 l/m 1,4 km/h (1 Bft) O-SO 103 0 min 0,000 mm 2,0 UV-I 244 W/m 3,8 C 10,1 C 4,0 km/h (1 Bft) 0,00 %
02.10.2015 10:28 10,5 C 64 % 1024,0 hPa 0,0 l/m 6,8 km/h (2 Bft) O-NO 78 0 min 0,000 mm 1,0 UV-I 131 W/m 4,0 C 10,2 C 11,9 km/h (2 Bft) 0,00 %
02.10.2015 10:33 10,2 C 67 % 1023,9 hPa 0,0 l/m 1,4 km/h (1 Bft) NO 42 0 min 0,000 mm 1,0 UV-I 146 W/m 4,4 C 10,2 C 4,0 km/h (1 Bft) 0,00 %
02.10.2015 10:38 10,1 C 65 % 1023,9 hPa 0,0 l/m 4,0 km/h (1 Bft) O-NO 73 0 min 0,000 mm 1,0 UV-I 222 W/m 3,8 C 10,1 C 11,9 km/h (2 Bft) 0,00 %
02.10.2015 10:43 10,6 C 62 % 1023,7 hPa 0,0 l/m 8,3 km/h (2 Bft) O-SO 107 0 min 0,000 mm 1,0 UV-I 231 W/m 3,6 C 9,3 C 11,9 km/h (2 Bft) 0,00 %
02.10.2015 10:48 11,1 C 61 % 1023,5 hPa 0,0 l/m 12,2 km/h (2 Bft) O-NO 78 0 min 0,000 mm 1,0 UV-I 241 W/m 3,9 C 7,7 C 15,8 km/h (3 Bft) 0,00 %
02.10.2015 10:53 11,4 C 61 % 1023,7 hPa 0,0 l/m 10,8 km/h (2 Bft) O 86 0 min 0,000 mm 1,0 UV-I 243 W/m 4,2 C 8,7 C 15,8 km/h (3 Bft) 0,00 %
02.10.2015 10:58 11,6 C 60 % 1023,6 hPa 0,0 l/m 4,3 km/h (1 Bft) O 79 0 min 0,000 mm 2,0 UV-I 262 W/m 4,1 C 11,6 C 7,9 km/h (2 Bft) 0,00 %
02.10.2015 11:03 11,8 C 61 % 1023,5 hPa 0,0 l/m 2,2 km/h (1 Bft) O-SO 115 0 min 0,000 mm 2,0 UV-I 277 W/m 4,5 C 11,8 C 7,9 km/h (2 Bft) 0,00 %
02.10.2015 11:09 12,1 C 60 % 1023,3 hPa 0,0 l/m 4,3 km/h (1 Bft) O-NO 60 0 min 0,000 mm 2,0 UV-I 289 W/m 4,6 C 12,1 C 7,9 km/h (2 Bft) 0,00 %
02.10.2015 11:14 12,3 C 58 % 1023,3 hPa 0,0 l/m 6,8 km/h (2 Bft) O 92 0 min 0,000 mm 2,0 UV-I 286 W/m 4,3 C 12,0 C 11,9 km/h (2 Bft) 0,00 %
02.10.2015 11:19 12,4 C 59 % 1023,5 hPa 0,0 l/m 0,0 km/h (0 Bft) O 85 0 min 0,000 mm 1,0 UV-I 208 W/m 4,6 C 12,4 C 0,0 km/h (0 Bft) 0,00 %
02.10.2015 11:24 12,3 C 59 % 1023,6 hPa 0,0 l/m 5,8 km/h (2 Bft) O-NO 59 0 min 0,000 mm 1,0 UV-I 139 W/m 4,5 C 12,3 C 7,9 km/h (2 Bft) 0,00 %
02.10.2015 11:29 12,0 C 60 % 1023,5 hPa 0,0 l/m 0,7 km/h (0 Bft) O 97 0 min 0,000 mm 1,0 UV-I 140 W/m 4,5 C 12,0 C 4,0 km/h (1 Bft) 0,00 %
02.10.2015 11:34 11,7 C 61 % 1023,4 hPa 0,0 l/m 0,0 km/h (0 Bft) NO 55 0 min 0,000 mm 1,0 UV-I 158 W/m 4,4 C 11,7 C 0,0 km/h (0 Bft) 0,00 %
02.10.2015 11:39 11,6 C 61 % 1023,4 hPa 0,0 l/m 6,8 km/h (2 Bft) O 99 0 min 0,000 mm 1,0 UV-I 188 W/m 4,3 C 11,3 C 7,9 km/h (2 Bft) 0,00 %
02.10.2015 11:44 11,6 C 61 % 1023,2 hPa 0,0 l/m 6,5 km/h (2 Bft) O 101 0 min 0,000 mm 1,0 UV-I 221 W/m 4,3 C 11,6 C 7,9 km/h (2 Bft) 0,00 %
02.10.2015 11:49 11,7 C 61 % 1022,9 hPa 0,0 l/m 1,8 km/h (1 Bft) O 81 0 min 0,000 mm 1,0 UV-I 241 W/m 4,4 C 11,7 C 7,9 km/h (2 Bft) 0,00 %
02.10.2015 11:54 11,8 C 61 % 1023,1 hPa 0,0 l/m 5,4 km/h (1 Bft) NO 41 0 min 0,000 mm 1,0 UV-I 265 W/m 4,5 C 11,8 C 7,9 km/h (2 Bft) 0,00 %
02.10.2015 11:59 12,0 C 62 % 1022,7 hPa 0,0 l/m 4,3 km/h (1 Bft) O 86 5 min 0,000 mm 2,0 UV-I 414 W/m 4,9 C 12,0 C 7,9 km/h (2 Bft) 0,00 %
02.10.2015 12:04 12,3 C 60 % 1022,5 hPa 0,0 l/m 1,8 km/h (1 Bft) SO 128 5 min 0,000 mm 2,0 UV-I 377 W/m 4,8 C 12,3 C 4,0 km/h (1 Bft) 0,00 %
02.10.2015 12:09 12,8 C 58 % 1022,8 hPa 0,0 l/m 9,0 km/h (2 Bft) O-SO 112 0 min 0,000 mm 1,0 UV-I 267 W/m 4,7 C 11,2 C 11,9 km/h (2 Bft) 0,00 %
02.10.2015 12:14 12,9 C 60 % 1022,7 hPa 0,0 l/m 3,2 km/h (1 Bft) O 84 0 min 0,000 mm 1,0 UV-I 250 W/m 5,3 C 12,9 C 4,0 km/h (1 Bft) 0,00 %
02.10.2015 12:19 12,7 C 61 % 1022,6 hPa 0,0 l/m 0,0 km/h (0 Bft) O-NO 60 0 min 0,000 mm 1,0 UV-I 267 W/m 5,4 C 12,7 C 0,0 km/h (0 Bft) 0,00 %
02.10.2015 12:24 12,7 C 60 % 1022,6 hPa 0,0 l/m 9,4 km/h (2 Bft) O 80 0 min 0,000 mm 1,0 UV-I 277 W/m 5,1 C 10,9 C 11,9 km/h (2 Bft) 0,00 %
02.10.2015 12:29 12,7 C 60 % 1022,7 hPa 0,0 l/m 0,4 km/h (0 Bft) NO 43 5 min 0,000 mm 1,0 UV-I 345 W/m 5,1 C 12,7 C 4,0 km/h (1 Bft) 0,00 %
02.10.2015 12:34 12,9 C 59 % 1022,3 hPa 0,0 l/m 3,2 km/h (1 Bft) NO 55 5 min 0,000 mm 2,0 UV-I 438 W/m 5,1 C 12,9 C 7,9 km/h (2 Bft) 0,00 %
02.10.2015 12:39 13,4 C 58 % 1022,2 hPa 0,0 l/m 7,9 km/h (2 Bft) SO 142 5 min 0,000 mm 2,0 UV-I 682 W/m 5,3 C 12,5 C 11,9 km/h (2 Bft) 0,00 %
02.10.2015 12:44 13,9 C 55 % 1022,0 hPa 0,0 l/m 4,0 km/h (1 Bft) SO 133 5 min 0,000 mm 2,0 UV-I 752 W/m 5,0 C 13,9 C 7,9 km/h (2 Bft) 0,00 %
02.10.2015 12:49 14,3 C 55 % 1022,0 hPa 0,0 l/m 9,7 km/h (2 Bft) SO 128 5 min 0,000 mm 2,0 UV-I 591 W/m 5,4 C 12,5 C 11,9 km/h (2 Bft) 0,00 %
02.10.2015 12:54 14,7 C 52 % 1022,0 hPa 0,0 l/m 7,2 km/h (2 Bft) O 101 5 min 0,000 mm 2,0 UV-I 625 W/m 5,0 C 14,2 C 11,9 km/h (2 Bft) 0,00 %
02.10.2015 12:59 14,9 C 52 % 1021,9 hPa 0,0 l/m 4,0 km/h (1 Bft) O 92 5 min 0,000 mm 2,0 UV-I 667 W/m 5,1 C 14,9 C 7,9 km/h (2 Bft) 0,00 %
02.10.2015 13:04 15,0 C 53 % 1022,0 hPa 0,0 l/m 6,8 km/h (2 Bft) N-NO 25 0 min 0,000 mm 2,0 UV-I 162 W/m 5,5 C 14,8 C 7,9 km/h (2 Bft) 0,00 %
02.10.2015 13:09 15,1 C 52 % 1022,0 hPa 0,0 l/m 5,4 km/h (1 Bft) O-NO 77 5 min 0,000 mm 2,0 UV-I 668 W/m 5,3 C 15,1 C 7,9 km/h (2 Bft) 0,00 %
02.10.2015 13:14 15,3 C 52 % 1021,8 hPa 0,0 l/m 6,5 km/h (2 Bft) O 94 5 min 0,000 mm 2,0 UV-I 660 W/m 5,5 C 15,3 C 11,9 km/h (2 Bft) 0,00 %
02.10.2015 13:19 15,5 C 51 % 1021,4 hPa 0,0 l/m 10,4 km/h (2 Bft) NO 42 5 min 0,000 mm 2,0 UV-I 535 W/m 5,4 C 13,5 C 11,9 km/h (2 Bft) 0,00 %
02.10.2015 13:24 15,8 C 51 % 1021,7 hPa 0,0 l/m 8,3 km/h (2 Bft) SO 130 5 min 0,000 mm 2,0 UV-I 672 W/m 5,7 C 14,8 C 11,9 km/h (2 Bft) 0,00 %
02.10.2015 13:29 15,9 C 50 % 1021,3 hPa 0,0 l/m 9,4 km/h (2 Bft) O 88 5 min 0,000 mm 2,0 UV-I 683 W/m 5,5 C 14,4 C 11,9 km/h (2 Bft) 0,00 %
02.10.2015 13:34 16,1 C 49 % 1021,4 hPa 0,0 l/m 11,9 km/h (2 Bft) NO 56 5 min 0,000 mm 2,0 UV-I 689 W/m 5,4 C 13,6 C 15,8 km/h (3 Bft) 0,00 %
02.10.2015 13:39 16,5 C 49 % 1021,2 hPa 0,0 l/m 11,5 km/h (2 Bft) O-SO 114 5 min 0,000 mm 1,0 UV-I 688 W/m 5,8 C 14,2 C 11,9 km/h (2 Bft) 0,00 %
02.10.2015 13:44 16,7 C 49 % 1021,1 hPa 0,0 l/m 13,0 km/h (3 Bft) NO 54 5 min 0,000 mm 1,0 UV-I 704 W/m 5,9 C 13,9 C 19,8 km/h (3 Bft) 0,00 %
02.10.2015 13:49 16,8 C 49 % 1021,1 hPa 0,0 l/m 11,5 km/h (2 Bft) O 90 5 min 0,000 mm 1,0 UV-I 700 W/m 6,0 C 14,5 C 15,8 km/h (3 Bft) 0,00 %
02.10.2015 13:54 16,9 C 48 % 1021,0 hPa 0,0 l/m 0,7 km/h (0 Bft) O-SO 111 5 min 0,000 mm 1,0 UV-I 706 W/m 5,8 C 16,9 C 4,0 km/h (1 Bft) 0,00 %
02.10.2015 13:59 17,2 C 47 % 1021,0 hPa 0,0 l/m 7,9 km/h (2 Bft) O 81 5 min 0,000 mm 1,0 UV-I 715 W/m 5,8 C 16,5 C 11,9 km/h (2 Bft) 0,00 %
02.10.2015 14:04 17,4 C 48 % 1020,8 hPa 0,0 l/m 14,4 km/h (3 Bft) O 98 5 min 0,000 mm 1,0 UV-I 718 W/m 6,3 C 14,3 C 19,8 km/h (3 Bft) 0,00 %
02.10.2015 14:09 17,6 C 47 % 1020,6 hPa 0,0 l/m 13,3 km/h (3 Bft) O 98 5 min 0,000 mm 1,0 UV-I 719 W/m 6,2 C 14,8 C 15,8 km/h (3 Bft) 0,00 %
02.10.2015 14:14 17,7 C 47 % 1020,7 hPa 0,0 l/m 15,5 km/h (3 Bft) O 86 5 min 0,000 mm 1,0 UV-I 718 W/m 6,2 C 14,3 C 19,8 km/h (3 Bft) 0,00 %
02.10.2015 14:19 17,6 C 46 % 1020,4 hPa 0,0 l/m 15,8 km/h (3 Bft) NO 54 5 min 0,000 mm 1,0 UV-I 724 W/m 5,8 C 14,1 C 24,1 km/h (4 Bft) 0,00 %
02.10.2015 14:24 17,7 C 47 % 1020,4 hPa 0,0 l/m 0,4 km/h (0 Bft) O-NO 78 5 min 0,000 mm 1,0 UV-I 724 W/m 6,2 C 17,7 C 4,0 km/h (1 Bft) 0,00 %
02.10.2015 14:29 17,8 C 47 % 1020,3 hPa 0,0 l/m 19,4 km/h (3 Bft) O-SO 109 5 min 0,000 mm 1,0 UV-I 733 W/m 6,3 C 13,5 C 19,8 km/h (3 Bft) 0,00 %
02.10.2015 14:34 17,8 C 46 % 1020,1 hPa 0,0 l/m 12,2 km/h (2 Bft) O-SO 117 5 min 0,000 mm 1,0 UV-I 725 W/m 6,0 C 15,4 C 19,8 km/h (3 Bft) 0,00 %
02.10.2015 14:39 18,0 C 45 % 1020,2 hPa 0,0 l/m 9,7 km/h (2 Bft) O 95 5 min 0,000 mm 1,0 UV-I 727 W/m 5,9 C 16,5 C 11,9 km/h (2 Bft) 0,00 %
02.10.2015 14:44 18,3 C 45 % 1020,3 hPa 0,0 l/m 9,4 km/h (2 Bft) O 86 5 min 0,000 mm 1,0 UV-I 734 W/m 6,2 C 17,0 C 11,9 km/h (2 Bft) 0,00 %
02.10.2015 14:49 18,3 C 46 % 1020,3 hPa 0,0 l/m 19,8 km/h (3 Bft) O-SO 109 5 min 0,000 mm 1,0 UV-I 729 W/m 6,5 C 14,1 C 24,1 km/h (4 Bft) 0,00 %
02.10.2015 14:54 18,3 C 45 % 1020,0 hPa 0,0 l/m 18,4 km/h (3 Bft) O 96 5 min 0,000 mm 1,0 UV-I 735 W/m 6,2 C 14,4 C 28,1 km/h (4 Bft) 0,00 %
02.10.2015 14:59 18,6 C 45 % 1020,1 hPa 0,0 l/m 15,5 km/h (3 Bft) O 100 5 min 0,000 mm 1,0 UV-I 730 W/m 6,4 C 15,4 C 24,1 km/h (4 Bft) 0,00 %
02.10.2015 15:04 18,7 C 45 % 1020,0 hPa 0,0 l/m 11,9 km/h (2 Bft) O 81 5 min 0,000 mm 1,0 UV-I 729 W/m 6,5 C 16,6 C 19,8 km/h (3 Bft) 0,00 %
02.10.2015 15:09 18,6 C 45 % 1019,8 hPa 0,0 l/m 3,2 km/h (1 Bft) N-NO 27 5 min 0,000 mm 1,0 UV-I 726 W/m 6,4 C 18,6 C 11,9 km/h (2 Bft) 0,00 %
02.10.2015 15:14 18,6 C 45 % 1019,9 hPa 0,0 l/m 6,5 km/h (2 Bft) O-SO 116 5 min 0,000 mm 1,0 UV-I 724 W/m 6,4 C 18,6 C 11,9 km/h (2 Bft) 0,00 %
02.10.2015 15:19 18,6 C 45 % 1020,0 hPa 0,0 l/m 18,4 km/h (3 Bft) O-NO 75 5 min 0,000 mm 1,0 UV-I 724 W/m 6,4 C 14,7 C 28,1 km/h (4 Bft) 0,00 %
02.10.2015 15:24 18,7 C 45 % 1019,6 hPa 0,0 l/m 18,0 km/h (3 Bft) O-SO 105 5 min 0,000 mm 1,0 UV-I 716 W/m 6,5 C 15,0 C 19,8 km/h (3 Bft) 0,00 %
02.10.2015 15:29 18,7 C 45 % 1019,7 hPa 0,0 l/m 18,0 km/h (3 Bft) O-SO 116 5 min 0,000 mm 1,0 UV-I 715 W/m 6,5 C 15,0 C 19,8 km/h (3 Bft) 0,00 %
02.10.2015 15:34 18,7 C 45 % 1019,6 hPa 0,0 l/m 15,8 km/h (3 Bft) O-NO 75 5 min 0,000 mm 1,0 UV-I 709 W/m 6,5 C 15,5 C 19,8 km/h (3 Bft) 0,00 %
02.10.2015 15:39 18,7 C 45 % 1019,5 hPa 0,0 l/m 15,8 km/h (3 Bft) O-SO 105 5 min 0,000 mm 1,0 UV-I 701 W/m 6,5 C 15,5 C 19,8 km/h (3 Bft) 0,00 %
02.10.2015 15:44 18,8 C 45 % 1019,6 hPa 0,0 l/m 14,8 km/h (3 Bft) O-SO 119 5 min 0,000 mm 1,0 UV-I 696 W/m 6,6 C 15,8 C 19,8 km/h (3 Bft) 0,00 %
02.10.2015 15:49 18,8 C 45 % 1019,3 hPa 0,0 l/m 8,3 km/h (2 Bft) NO 37 5 min 0,000 mm 1,0 UV-I 689 W/m 6,6 C 18,0 C 11,9 km/h (2 Bft) 0,00 %
02.10.2015 15:54 18,9 C 44 % 1019,4 hPa 0,0 l/m 18,0 km/h (3 Bft) O-SO 111 5 min 0,000 mm 1,0 UV-I 686 W/m 6,4 C 15,2 C 24,1 km/h (4 Bft) 0,00 %
02.10.2015 15:59 18,9 C 44 % 1019,4 hPa 0,0 l/m 3,2 km/h (1 Bft) O-NO 60 5 min 0,000 mm 1,0 UV-I 671 W/m 6,4 C 18,9 C 7,9 km/h (2 Bft) 0,00 %
02.10.2015 16:04 19,0 C 44 % 1019,2 hPa 0,0 l/m 20,5 km/h (4 Bft) O-SO 105 5 min 0,000 mm 1,0 UV-I 668 W/m 6,5 C 14,8 C 24,1 km/h (4 Bft) 0,00 %
02.10.2015 16:09 19,0 C 44 % 1019,3 hPa 0,0 l/m 8,3 km/h (2 Bft) NO 40 5 min 0,000 mm 1,0 UV-I 655 W/m 6,5 C 18,2 C 15,8 km/h (3 Bft) 0,00 %
02.10.2015 16:14 19,0 C 44 % 1019,4 hPa 0,0 l/m 0,0 km/h (0 Bft) NO 51 5 min 0,000 mm 1,0 UV-I 644 W/m 6,5 C 19,0 C 0,0 km/h (0 Bft) 0,00 %
02.10.2015 16:19 19,0 C 44 % 1019,2 hPa 0,0 l/m 2,9 km/h (1 Bft) NO 45 5 min 0,000 mm 1,0 UV-I 634 W/m 6,5 C 19,0 C 7,9 km/h (2 Bft) 0,00 %
02.10.2015 16:24 19,0 C 45 % 1019,2 hPa 0,0 l/m 15,8 km/h (3 Bft) NO 38 5 min 0,000 mm 1,0 UV-I 629 W/m 6,8 C 15,8 C 19,8 km/h (3 Bft) 0,00 %
02.10.2015 16:29 19,0 C 45 % 1019,1 hPa 0,0 l/m 0,4 km/h (0 Bft) O-NO 71 5 min 0,000 mm 1,0 UV-I 614 W/m 6,8 C 19,0 C 4,0 km/h (1 Bft) 0,00 %
02.10.2015 16:34 19,0 C 45 % 1018,9 hPa 0,0 l/m 10,8 km/h (2 Bft) O-NO 58 5 min 0,000 mm 1,0 UV-I 599 W/m 6,8 C 17,3 C 15,8 km/h (3 Bft) 0,00 %
02.10.2015 16:39 19,0 C 45 % 1018,9 hPa 0,0 l/m 11,5 km/h (2 Bft) O-NO 72 5 min 0,000 mm 1,0 UV-I 587 W/m 6,8 C 17,0 C 15,8 km/h (3 Bft) 0,00 %
02.10.2015 16:44 19,0 C 45 % 1018,8 hPa 0,0 l/m 14,0 km/h (3 Bft) O 92 5 min 0,000 mm 1,0 UV-I 576 W/m 6,8 C 16,3 C 19,8 km/h (3 Bft) 0,00 %
02.10.2015 16:49 18,9 C 46 % 1018,7 hPa 0,0 l/m 8,3 km/h (2 Bft) O 85 5 min 0,000 mm 1,0 UV-I 563 W/m 7,0 C 18,1 C 15,8 km/h (3 Bft) 0,00 %
02.10.2015 16:54 18,9 C 46 % 1018,6 hPa 0,0 l/m 10,8 km/h (2 Bft) O-NO 71 5 min 0,000 mm 1,0 UV-I 542 W/m 7,0 C 17,1 C 15,8 km/h (3 Bft) 0,00 %
02.10.2015 16:59 18,8 C 46 % 1018,7 hPa 0,0 l/m 3,2 km/h (1 Bft) SO 134 5 min 0,000 mm 1,0 UV-I 534 W/m 6,9 C 18,8 C 7,9 km/h (2 Bft) 0,00 %
02.10.2015 17:04 18,8 C 46 % 1018,7 hPa 0,0 l/m 12,2 km/h (2 Bft) O 95 5 min 0,000 mm 1,0 UV-I 518 W/m 6,9 C 16,6 C 15,8 km/h (3 Bft) 0,00 %
02.10.2015 17:09 18,8 C 47 % 1018,6 hPa 0,0 l/m 2,2 km/h (1 Bft) NO 44 5 min 0,000 mm 1,0 UV-I 499 W/m 7,2 C 18,8 C 4,0 km/h (1 Bft) 0,00 %
02.10.2015 17:14 18,8 C 47 % 1018,5 hPa 0,0 l/m 13,0 km/h (3 Bft) SO 125 5 min 0,000 mm 1,0 UV-I 475 W/m 7,2 C 16,3 C 15,8 km/h (3 Bft) 0,00 %
02.10.2015 17:19 18,7 C 46 % 1018,4 hPa 0,0 l/m 14,0 km/h (3 Bft) O 92 5 min 0,000 mm 1,0 UV-I 454 W/m 6,8 C 15,9 C 19,8 km/h (3 Bft) 0,00 %
02.10.2015 17:24 18,7 C 47 % 1018,4 hPa 0,0 l/m 4,7 km/h (1 Bft) NO 56 5 min 0,000 mm 1,0 UV-I 430 W/m 7,2 C 18,7 C 7,9 km/h (2 Bft) 0,00 %
02.10.2015 17:29 18,6 C 48 % 1018,6 hPa 0,0 l/m 0,4 km/h (0 Bft) NO 51 5 min 0,000 mm 1,0 UV-I 406 W/m 7,4 C 18,6 C 4,0 km/h (1 Bft) 0,00 %
02.10.2015 17:34 18,5 C 48 % 1018,3 hPa 0,0 l/m 10,4 km/h (2 Bft) NO 54 5 min 0,000 mm 1,0 UV-I 384 W/m 7,3 C 16,8 C 15,8 km/h (3 Bft) 0,00 %
02.10.2015 17:39 18,3 C 48 % 1018,3 hPa 0,0 l/m 12,2 km/h (2 Bft) O-SO 103 5 min 0,000 mm 0,0 UV-I 353 W/m 7,1 C 16,0 C 19,8 km/h (3 Bft) 0,00 %
02.10.2015 17:44 18,2 C 47 % 1018,2 hPa 0,0 l/m 7,9 km/h (2 Bft) O 79 5 min 0,000 mm 0,0 UV-I 317 W/m 6,7 C 17,5 C 15,8 km/h (3 Bft) 0,00 %
02.10.2015 17:49 18,0 C 48 % 1018,1 hPa 0,0 l/m 11,5 km/h (2 Bft) O 97 5 min 0,000 mm 0,0 UV-I 296 W/m 6,8 C 15,9 C 15,8 km/h (3 Bft) 0,00 %
02.10.2015 17:54 17,9 C 49 % 1018,3 hPa 0,0 l/m 4,7 km/h (1 Bft) NO 45 5 min 0,000 mm 0,0 UV-I 260 W/m 7,0 C 17,9 C 7,9 km/h (2 Bft) 0,00 %
02.10.2015 17:59 17,7 C 50 % 1018,2 hPa 0,0 l/m 10,8 km/h (2 Bft) O 94 5 min 0,000 mm 0,0 UV-I 220 W/m 7,1 C 15,8 C 15,8 km/h (3 Bft) 0,00 %
02.10.2015 18:04 17,5 C 51 % 1018,3 hPa 0,0 l/m 4,7 km/h (1 Bft) O-SO 105 5 min 0,000 mm 0,0 UV-I 183 W/m 7,3 C 17,5 C 11,9 km/h (2 Bft) 0,00 %
02.10.2015 18:09 17,4 C 50 % 1018,3 hPa 0,0 l/m 7,9 km/h (2 Bft) SO 131 5 min 0,000 mm 0,0 UV-I 152 W/m 6,9 C 16,7 C 11,9 km/h (2 Bft) 0,00 %
02.10.2015 18:14 17,2 C 51 % 1018,5 hPa 0,0 l/m 7,9 km/h (2 Bft) S-SW 192 5 min 0,000 mm 0,0 UV-I 123 W/m 7,0 C 16,5 C 11,9 km/h (2 Bft) 0,00 %
02.10.2015 18:19 17,1 C 50 % 1018,3 hPa 0,0 l/m 7,9 km/h (2 Bft) O-NO 66 5 min 0,000 mm 0,0 UV-I 96 W/m 6,6 C 16,4 C 11,9 km/h (2 Bft) 0,00 %
02.10.2015 18:24 17,0 C 50 % 1018,3 hPa 0,0 l/m 10,4 km/h (2 Bft) O 84 5 min 0,000 mm 0,0 UV-I 69 W/m 6,5 C 15,2 C 11,9 km/h (2 Bft) 0,00 %
02.10.2015 18:29 16,9 C 51 % 1018,7 hPa 0,0 l/m 9,4 km/h (2 Bft) O-SO 104 5 min 0,000 mm 0,0 UV-I 36 W/m 6,7 C 15,5 C 11,9 km/h (2 Bft) 0,00 %
02.10.2015 18:34 16,7 C 51 % 1018,9 hPa 0,0 l/m 9,7 km/h (2 Bft) O-NO 66 0 min 0,000 mm 0,0 UV-I 16 W/m 6,5 C 15,1 C 15,8 km/h (3 Bft) 0,00 %
02.10.2015 18:39 16,4 C 52 % 1019,1 hPa 0,0 l/m 6,8 km/h (2 Bft) O-NO 73 0 min 0,000 mm 0,0 UV-I 5 W/m 6,5 C 16,2 C 11,9 km/h (2 Bft) 0,00 %
02.10.2015 18:44 16,2 C 52 % 1019,2 hPa 0,0 l/m 10,8 km/h (2 Bft) O-NO 70 0 min 0,000 mm 0,0 UV-I 0 W/m 6,3 C 14,1 C 19,8 km/h (3 Bft) 0,00 %
02.10.2015 18:49 16,1 C 52 % 1019,1 hPa 0,0 l/m 6,8 km/h (2 Bft) O-SO 107 0 min 0,000 mm 0,0 UV-I 0 W/m 6,2 C 15,9 C 11,9 km/h (2 Bft) 0,00 %
02.10.2015 18:54 16,0 C 54 % 1019,0 hPa 0,0 l/m 10,4 km/h (2 Bft) O 88 0 min 0,000 mm 0,0 UV-I 0 W/m 6,7 C 14,1 C 11,9 km/h (2 Bft) 0,00 %
02.10.2015 18:59 15,8 C 55 % 1019,0 hPa 0,0 l/m 1,4 km/h (1 Bft) O 95 0 min 0,000 mm 0,0 UV-I 0 W/m 6,8 C 15,8 C 4,0 km/h (1 Bft) 0,00 %
02.10.2015 19:04 15,5 C 55 % 1018,8 hPa 0,0 l/m 7,9 km/h (2 Bft) O 89 0 min 0,000 mm 0,0 UV-I 0 W/m 6,5 C 14,7 C 15,8 km/h (3 Bft) 0,00 %
02.10.2015 19:09 15,4 C 55 % 1018,9 hPa 0,0 l/m 7,2 km/h (2 Bft) O-SO 105 0 min 0,000 mm 0,0 UV-I 0 W/m 6,4 C 15,0 C 11,9 km/h (2 Bft) 0,00 %
02.10.2015 19:14 15,3 C 55 % 1018,9 hPa 0,0 l/m 5,4 km/h (1 Bft) O-NO 62 0 min 0,000 mm 0,0 UV-I 0 W/m 6,3 C 15,3 C 7,9 km/h (2 Bft) 0,00 %
02.10.2015 19:19 15,2 C 55 % 1018,8 hPa 0,0 l/m 17,3 km/h (3 Bft) O-SO 108 0 min 0,000 mm 0,0 UV-I 0 W/m 6,2 C 10,7 C 24,1 km/h (4 Bft) 0,00 %
02.10.2015 19:28 15,1 C 55 % 1019,0 hPa 0,0 l/m 4,7 km/h (1 Bft) O 90 0 min 0,000 mm 0,0 UV-I 0 W/m 6,1 C 15,1 C 7,9 km/h (2 Bft) 0,00 %
02.10.2015 19:33 15,1 C 57 % 1018,9 hPa 0,0 l/m 6,8 km/h (2 Bft) O 90 0 min 0,000 mm 0,0 UV-I 0 W/m 6,6 C 14,9 C 11,9 km/h (2 Bft) 0,00 %
02.10.2015 19:38 14,9 C 58 % 1018,9 hPa 0,0 l/m 9,7 km/h (2 Bft) NO 49 0 min 0,000 mm 0,0 UV-I 0 W/m 6,7 C 13,1 C 15,8 km/h (3 Bft) 0,00 %
02.10.2015 19:43 14,7 C 58 % 1018,9 hPa 0,0 l/m 5,4 km/h (1 Bft) SO 145 0 min 0,000 mm 0,0 UV-I 0 W/m 6,5 C 14,7 C 7,9 km/h (2 Bft) 0,00 %
02.10.2015 19:48 14,7 C 58 % 1019,0 hPa 0,0 l/m 6,5 km/h (2 Bft) O-SO 107 0 min 0,000 mm 0,0 UV-I 0 W/m 6,5 C 14,7 C 7,9 km/h (2 Bft) 0,00 %
02.10.2015 19:54 14,6 C 58 % 1019,1 hPa 0,0 l/m 12,2 km/h (2 Bft) O-NO 72 0 min 0,000 mm 0,0 UV-I 0 W/m 6,4 C 11,7 C 15,8 km/h (3 Bft) 0,00 %
02.10.2015 19:59 14,6 C 58 % 1019,0 hPa 0,0 l/m 9,4 km/h (2 Bft) O 99 0 min 0,000 mm 0,0 UV-I 0 W/m 6,4 C 13,0 C 15,8 km/h (3 Bft) 0,00 %
02.10.2015 20:04 14,5 C 59 % 1019,1 hPa 0,0 l/m 9,4 km/h (2 Bft) O 98 0 min 0,000 mm 0,0 UV-I 0 W/m 6,6 C 12,9 C 15,8 km/h (3 Bft) 0,00 %
02.10.2015 20:09 14,4 C 58 % 1019,1 hPa 0,0 l/m 6,8 km/h (2 Bft) O 88 0 min 0,000 mm 0,0 UV-I 0 W/m 6,2 C 14,2 C 7,9 km/h (2 Bft) 0,00 %
02.10.2015 20:14 14,4 C 59 % 1019,1 hPa 0,0 l/m 15,5 km/h (3 Bft) O 98 0 min 0,000 mm 0,0 UV-I 0 W/m 6,5 C 10,3 C 19,8 km/h (3 Bft) 0,00 %
02.10.2015 20:19 14,3 C 59 % 1019,0 hPa 0,0 l/m 11,5 km/h (2 Bft) O-SO 123 0 min 0,000 mm 0,0 UV-I 0 W/m 6,4 C 11,7 C 15,8 km/h (3 Bft) 0,00 %
02.10.2015 20:24 14,2 C 59 % 1019,0 hPa 0,0 l/m 2,9 km/h (1 Bft) O-NO 70 0 min 0,000 mm 0,0 UV-I 0 W/m 6,3 C 14,2 C 4,0 km/h (1 Bft) 0,00 %
02.10.2015 20:29 14,1 C 60 % 1019,1 hPa 0,0 l/m 5,4 km/h (1 Bft) O 88 0 min 0,000 mm 0,0 UV-I 0 W/m 6,5 C 14,1 C 7,9 km/h (2 Bft) 0,00 %
02.10.2015 20:34 14,1 C 59 % 1019,1 hPa 0,0 l/m 7,2 km/h (2 Bft) O 86 0 min 0,000 mm 0,0 UV-I 0 W/m 6,2 C 13,6 C 11,9 km/h (2 Bft) 0,00 %
02.10.2015 20:39 14,1 C 59 % 1019,0 hPa 0,0 l/m 4,7 km/h (1 Bft) O 96 0 min 0,000 mm 0,0 UV-I 0 W/m 6,2 C 14,1 C 7,9 km/h (2 Bft) 0,00 %
02.10.2015 20:44 14,0 C 60 % 1019,1 hPa 0,0 l/m 4,3 km/h (1 Bft) SO 130 0 min 0,000 mm 0,0 UV-I 0 W/m 6,4 C 14,0 C 7,9 km/h (2 Bft) 0,00 %
02.10.2015 20:49 13,9 C 61 % 1019,0 hPa 0,0 l/m 5,4 km/h (1 Bft) N-NO 29 0 min 0,000 mm 0,0 UV-I 0 W/m 6,5 C 13,9 C 11,9 km/h (2 Bft) 0,00 %
02.10.2015 20:54 13,7 C 61 % 1019,1 hPa 0,0 l/m 5,8 km/h (2 Bft) O 90 0 min 0,000 mm 0,0 UV-I 0 W/m 6,3 C 13,7 C 7,9 km/h (2 Bft) 0,00 %
02.10.2015 20:59 13,5 C 61 % 1018,7 hPa 0,0 l/m 2,2 km/h (1 Bft) O 87 0 min 0,000 mm 0,0 UV-I 0 W/m 6,1 C 13,5 C 4,0 km/h (1 Bft) 0,00 %
02.10.2015 21:04 13,4 C 62 % 1018,9 hPa 0,0 l/m 1,8 km/h (1 Bft) O-NO 65 0 min 0,000 mm 0,0 UV-I 0 W/m 6,3 C 13,4 C 7,9 km/h (2 Bft) 0,00 %
02.10.2015 21:09 13,4 C 62 % 1018,9 hPa 0,0 l/m 5,8 km/h (2 Bft) O-SO 111 0 min 0,000 mm 0,0 UV-I 0 W/m 6,3 C 13,4 C 11,9 km/h (2 Bft) 0,00 %
02.10.2015 21:14 13,4 C 62 % 1018,8 hPa 0,0 l/m 9,4 km/h (2 Bft) O 91 0 min 0,000 mm 0,0 UV-I 0 W/m 6,3 C 11,7 C 11,9 km/h (2 Bft) 0,00 %
02.10.2015 21:19 13,3 C 62 % 1019,0 hPa 0,0 l/m 0,0 km/h (0 Bft) O-NO 66 0 min 0,000 mm 0,0 UV-I 0 W/m 6,2 C 13,3 C 0,0 km/h (0 Bft) 0,00 %
02.10.2015 21:24 13,2 C 62 % 1018,7 hPa 0,0 l/m 9,4 km/h (2 Bft) O-NO 77 0 min 0,000 mm 0,0 UV-I 0 W/m 6,1 C 11,4 C 11,9 km/h (2 Bft) 0,00 %
02.10.2015 21:29 13,1 C 62 % 1018,8 hPa 0,0 l/m 10,4 km/h (2 Bft) O 90 0 min 0,000 mm 0,0 UV-I 0 W/m 6,0 C 10,8 C 15,8 km/h (3 Bft) 0,00 %
02.10.2015 21:34 13,0 C 64 % 1018,8 hPa 0,0 l/m 8,3 km/h (2 Bft) O-SO 108 0 min 0,000 mm 0,0 UV-I 0 W/m 6,4 C 11,8 C 11,9 km/h (2 Bft) 0,00 %
02.10.2015 21:39 12,8 C 64 % 1018,7 hPa 0,0 l/m 6,5 km/h (2 Bft) O-NO 76 0 min 0,000 mm 0,0 UV-I 0 W/m 6,2 C 12,8 C 7,9 km/h (2 Bft) 0,00 %
02.10.2015 21:44 12,8 C 64 % 1019,0 hPa 0,0 l/m 7,9 km/h (2 Bft) O 82 0 min 0,000 mm 0,0 UV-I 0 W/m 6,2 C 11,9 C 11,9 km/h (2 Bft) 0,00 %
02.10.2015 21:49 12,7 C 64 % 1019,0 hPa 0,0 l/m 6,5 km/h (2 Bft) O 90 0 min 0,000 mm 0,0 UV-I 0 W/m 6,1 C 12,7 C 11,9 km/h (2 Bft) 0,00 %
02.10.2015 21:54 12,7 C 64 % 1019,0 hPa 0,0 l/m 6,8 km/h (2 Bft) O 101 0 min 0,000 mm 0,0 UV-I 0 W/m 6,1 C 12,5 C 7,9 km/h (2 Bft) 0,00 %
02.10.2015 21:59 12,6 C 64 % 1019,0 hPa 0,0 l/m 1,4 km/h (1 Bft) O 88 0 min 0,000 mm 0,0 UV-I 0 W/m 6,0 C 12,6 C 4,0 km/h (1 Bft) 0,00 %
02.10.2015 22:04 12,5 C 65 % 1018,9 hPa 0,0 l/m 5,8 km/h (2 Bft) O 89 0 min 0,000 mm 0,0 UV-I 0 W/m 6,1 C 12,5 C 7,9 km/h (2 Bft) 0,00 %
02.10.2015 22:09 12,5 C 65 % 1018,7 hPa 0,0 l/m 5,8 km/h (2 Bft) O 82 0 min 0,000 mm 0,0 UV-I 0 W/m 6,1 C 12,5 C 7,9 km/h (2 Bft) 0,00 %
02.10.2015 22:14 12,4 C 65 % 1018,7 hPa 0,0 l/m 6,5 km/h (2 Bft) O-SO 115 0 min 0,000 mm 0,0 UV-I 0 W/m 6,0 C 12,4 C 7,9 km/h (2 Bft) 0,00 %
02.10.2015 22:19 12,2 C 66 % 1018,7 hPa 0,0 l/m 4,7 km/h (1 Bft) O 96 0 min 0,000 mm 0,0 UV-I 0 W/m 6,0 C 12,2 C 7,9 km/h (2 Bft) 0,00 %
02.10.2015 22:24 12,0 C 68 % 1018,8 hPa 0,0 l/m 4,3 km/h (1 Bft) O 94 0 min 0,000 mm 0,0 UV-I 0 W/m 6,3 C 12,0 C 7,9 km/h (2 Bft) 0,00 %
02.10.2015 22:29 11,9 C 68 % 1018,7 hPa 0,0 l/m 4,0 km/h (1 Bft) O 82 0 min 0,000 mm 0,0 UV-I 0 W/m 6,2 C 11,9 C 7,9 km/h (2 Bft) 0,00 %
02.10.2015 22:34 11,9 C 68 % 1018,7 hPa 0,0 l/m 0,0 km/h (0 Bft) NO 56 0 min 0,000 mm 0,0 UV-I 0 W/m 6,2 C 11,9 C 0,0 km/h (0 Bft) 0,00 %
02.10.2015 22:39 11,8 C 68 % 1018,8 hPa 0,0 l/m 4,7 km/h (1 Bft) O-SO 105 0 min 0,000 mm 0,0 UV-I 0 W/m 6,1 C 11,8 C 7,9 km/h (2 Bft) 0,00 %
02.10.2015 22:44 11,7 C 69 % 1018,5 hPa 0,0 l/m 4,7 km/h (1 Bft) O-NO 69 0 min 0,000 mm 0,0 UV-I 0 W/m 6,2 C 11,7 C 7,9 km/h (2 Bft) 0,00 %
02.10.2015 22:49 11,6 C 69 % 1018,4 hPa 0,0 l/m 8,3 km/h (2 Bft) O 100 0 min 0,000 mm 0,0 UV-I 0 W/m 6,1 C 10,3 C 11,9 km/h (2 Bft) 0,00 %
02.10.2015 22:54 11,5 C 69 % 1018,4 hPa 0,0 l/m 0,0 km/h (0 Bft) O-NO 73 0 min 0,000 mm 0,0 UV-I 0 W/m 6,0 C 11,5 C 0,0 km/h (0 Bft) 0,00 %
02.10.2015 22:59 11,3 C 70 % 1018,4 hPa 0,0 l/m 0,0 km/h (0 Bft) NO 50 0 min 0,000 mm 0,0 UV-I 0 W/m 6,0 C 11,3 C 0,0 km/h (0 Bft) 0,00 %
02.10.2015 23:04 11,0 C 71 % 1018,4 hPa 0,0 l/m 4,0 km/h (1 Bft) O-NO 67 0 min 0,000 mm 0,0 UV-I 0 W/m 5,9 C 11,0 C 7,9 km/h (2 Bft) 0,00 %
02.10.2015 23:09 11,0 C 70 % 1018,3 hPa 0,0 l/m 7,9 km/h (2 Bft) O 83 0 min 0,000 mm 0,0 UV-I 0 W/m 5,7 C 10,0 C 11,9 km/h (2 Bft) 0,00 %
02.10.2015 23:14 11,0 C 71 % 1018,4 hPa 0,0 l/m 0,0 km/h (0 Bft) O-NO 58 0 min 0,000 mm 0,0 UV-I 0 W/m 5,9 C 11,0 C 0,0 km/h (0 Bft) 0,00 %
02.10.2015 23:19 11,0 C 72 % 1018,5 hPa 0,0 l/m 3,2 km/h (1 Bft) O 94 0 min 0,000 mm 0,0 UV-I 0 W/m 6,2 C 11,0 C 4,0 km/h (1 Bft) 0,00 %
02.10.2015 23:24 10,9 C 72 % 1018,4 hPa 0,0 l/m 0,0 km/h (0 Bft) O-NO 72 0 min 0,000 mm 0,0 UV-I 0 W/m 6,1 C 10,9 C 0,0 km/h (0 Bft) 0,00 %
02.10.2015 23:29 10,8 C 73 % 1018,5 hPa 0,0 l/m 0,0 km/h (0 Bft) O-NO 78 0 min 0,000 mm 0,0 UV-I 0 W/m 6,2 C 10,8 C 0,0 km/h (0 Bft) 0,00 %
02.10.2015 23:34 10,7 C 73 % 1018,3 hPa 0,0 l/m 0,0 km/h (0 Bft) O-NO 60 0 min 0,000 mm 0,0 UV-I 0 W/m 6,1 C 10,7 C 0,0 km/h (0 Bft) 0,00 %
02.10.2015 23:39 10,6 C 73 % 1018,3 hPa 0,0 l/m 2,2 km/h (1 Bft) O 89 0 min 0,000 mm 0,0 UV-I 0 W/m 6,0 C 10,6 C 4,0 km/h (1 Bft) 0,00 %
02.10.2015 23:44 10,5 C 74 % 1018,4 hPa 0,0 l/m 0,0 km/h (0 Bft) O 85 0 min 0,000 mm 0,0 UV-I 0 W/m 6,1 C 10,5 C 0,0 km/h (0 Bft) 0,00 %
02.10.2015 23:49 10,4 C 74 % 1018,2 hPa 0,0 l/m 0,0 km/h (0 Bft) NO 56 0 min 0,000 mm 0,0 UV-I 0 W/m 6,0 C 10,4 C 0,0 km/h (0 Bft) 0,00 %
02.10.2015 23:54 10,3 C 74 % 1018,3 hPa 0,0 l/m 0,0 km/h (0 Bft) O-NO 65 0 min 0,000 mm 0,0 UV-I 0 W/m 5,9 C 10,3 C 0,0 km/h (0 Bft) 0,00 %
02.10.2015 23:59 10,3 C 74 % 1018,3 hPa 0,0 l/m 0,0 km/h (0 Bft) O-NO 76 0 min 0,000 mm 0,0 UV-I 0 W/m 5,9 C 10,3 C 0,0 km/h (0 Bft) 0,00 %
_ Min-Zeit 07:13 15:54 17:49 - 00:13 - - - - - - 07:13 09:48 00:13 00:03
Minimum _ 4,1 C 44 % 1018,1 hPa - 0,0 km/h (0 Bft) - - - - - - 2,3 C 2,5 C 0,0 km/h (0 Bft) 0,00 %
_ Max-Zeit 16:04 07:18 00:08 00:03 16:04 - - 07:18 00:03 10:23 12:44 17:29 16:14 09:48 00:03
Maximum _ 19,0 C 89 % 1026,3 hPa 0,0 l/m 20,5 km/h
O-SO (4 Bft)
- - 5 min 0,000 mm 2,0 UV-I 752 W/m 7,4 C 19,0 C 28,1 km/h
O (4 Bft)
0,00 %
Durchschnitt _ 11,2 C 66 % 1022,1 hPa #0,0 l/m 5,0 km/h (1 Bft) O - #7:45 h #0,000 mm 1,2 UV-I 376 W/m 4,7 C 10,6 C 7,8 km/h (2 Bft) 0,00 %